ASTRA 1L

Last updated on Sat Apr 13 2024 01:02:37 GMT+0100 (British Summer Time)

1 31306U 07016A 24103.56230032 .00000111 00000+0 00000+0 0 9999 2 31306 0.0627 39.9333 0004701 295.2742 87.6443 1.00271019 37028
UTC large
Height (km)
Speed (km/s)
/
Latitude / Longitude
Inclination (degrees)
Orbital Period (minutes)
Azimuth
Elevation
Range (km)
Doppler Factor

Next 0 passes for location: London (51.5072 / 0.1276)

Sorry there are no passes over London.